Погода в Чусте

Узбекистан     41°00′08″N   71°13′35″E
темп.,
°C
ветер,
м/с
пор.,
м/с
влажн.,
%
обл.,
%
осадки,
мм/ч
давл.,
гПа
погр.,
м
3 марта, ср
ср323:00+10ссв2236100 0.0 102429
02:00+8в1141100 0.0 102322
05:00+7в1155100 0.0 102322
08:00+6с1278100 0.8 1023178
11:00+5ссв4679100 2.1 1023372
14:00+6всв3483100 0.3 1021308
17:00+6всв3488100 0.3 1021291
20:00+6св2486100 0.1 1023248
4 марта, чт
чт423:00+6ссв1287100 0.1 1024114
02:00+5св228895 0.1 102326
05:00+5ссв227867 0.1 102222
08:00+6с235819 0.0 102368
11:00+11св334843 0.0 10201000
14:00+13всв224291 0.0 10171373
17:00+13ю114196 0.0 10181390
20:00+11зюз5756100 0.1 1020599
5 марта, пт
пт523:00+9всв2266100 0.2 102264
02:00+8с1181100 1.4 1023124
05:00+8вюв2285100 1.4 1025199
08:00+7юз4582100 0.0 1027353
11:00+9юз325682 0.1 1027684
14:00+12всв22430 0.0 10261409
17:00+11ссв565228 0.1 1025726
20:00+8ссв47580 0.0 1027228
6 марта, сб
сб623:00+7с45540 0.0 1025103
02:00+7с34362 0.0 102264
05:00+7с113251 0.0 102022
08:00+6юв113996 0.0 101630
11:00+11в242694 0.0 1011452
14:00+14юз4326100 0.0 1009715
17:00+12зюз3531100 0.0 1010497
20:00+11зюз1138100 0.0 101222
7 марта, вс
вс723:00+9юз1148100 0.0 101522
02:00+9юв1151100 0.0 101522
05:00+7ююз2262100 0.0 101528
08:00+8з1262100 0.1 1017148
11:00+10ююв1159100 0.2 1017804
14:00+13в444656 0.0 10161205
17:00+12вюв334559 0.0 10161279
20:00+10юз1262100 0.0 101885